Погода в Сындыргы

Турция     39°14′21″N   28°10′29″E
темп.,
°C
ветер,
м/с
пор.,
м/с
влажн.,
%
обл.,
%
осадки,
мм/ч
давл.,
гПа
погр.,
м
19 июня, сб
сб1900:00+15ссв1190100 0.3 101411
03:00+15вюв119093 0.4 101311
06:00+15вюв118697 0.0 101211
09:00+19сз217197 0.0 1013399
12:00+22сз33558 0.1 10121231
15:00+24сз445278 1.4 10111721
18:00+22ссз455911 0.4 10111090
21:00+19с227376 0.4 101245
20 июня, вс
вс2000:00+18с117568 0.0 101227
03:00+16с11845 0.0 101211
06:00+15св11895 0.0 101211
09:00+20ссз22655 0.0 1012565
12:00+24ссз43506 0.0 10111302
15:00+26ссз634432 0.0 10101729
18:00+24ссз775149 0.1 10101467
21:00+18ссз227257 0.1 101215
21 июня, пн
пн2100:00+16с1181100 0.1 101211
03:00+15ссз1190100 0.1 101112
06:00+14с1195100 0.0 101212
09:00+19ссз227155 0.0 1012482
12:00+23сз335323 0.0 10111209
15:00+26сз544520 0.0 10101657
18:00+25ссз76497 0.0 10101545
21:00+19ссз22680 0.0 101211
22 июня, вт
вт2200:00+17с11750 0.0 101311
03:00+16в11805 0.0 101311
06:00+15в118333 0.0 101311
09:00+21с22600 0.0 1013477
12:00+26ссз43420 0.0 10121330
15:00+28сз55385 0.0 10121894
18:00+27ссз67385 0.0 10121680
21:00+21с22595 0.0 101317
23 июня, ср
ср2300:00+19с01673 0.0 101411
03:00+18вюв226949 0.0 101413
06:00+18вюв22650 0.0 101413
09:00+25ссз11490 0.0 1014400
12:00+29ссз47394 0.0 10141751
15:00+31ссз673482 0.0 10132808
18:00+29с77360 0.0 10132168
21:00+23с235956 0.0 101544